Location: Unspecified
(0.0000°N, 0.0000°E)
Time: 23:33:48
(UTC+00:00)

S-56A Canister/Altair - Pass Details

Date: 08 October 2020
Orbit: 633 x 2499 km, 38.9° (Epoch: 28 October)

Event Time Altitude Azimuth Distance (km) Brightness Sun altitude
Rises 09:36:04 0° 254° (WSW) 4,204 11.0 56.7°
Reaches altitude 10° 09:38:52 10° 263° (W) 3,475 10.7 57.3°
Maximum altitude 09:47:06 36° 326° (NW) 2,598 10.4 59.4°
Drops below altitude 10° 09:58:33 10° 27° (NNE) 4,809 11.8 62.1°
Sets 10:03:17 0° 35° (NE) 6,000 12.2 63.3°
